• In Uzbekistan
  • List of Countries
  • For 7 days
  • Water Temperature
  • Satellite Maps
  • Weather Map
  • Weather Widgets
  • user-avatar
    Login

    Hourly Weather Lusaka

    Today, 17 January, Wednesday

    Time Temperature Precipitation Wind Pressure Humidity
    00:00 +20°C° 0.6 mm 2 mps 656 mmHg 87%
    01:00 +19°C° 0.6 mm 2 mps 656 mmHg 88%
    02:00 +19°C° 0.6 mm 2 mps 656 mmHg 89%
    03:00 +19°C° 0.2 mm 2 mps 656 mmHg 90%
    04:00 +19°C° 0.2 mm 2 mps 656 mmHg 91%
    05:00 +19°C° 0.2 mm 2 mps 656 mmHg 92%
    06:00 +19°C° 0.1 mm 2 mps 656 mmHg 89%
    07:00 +20°C° 0.1 mm 3 mps 657 mmHg 86%
    08:00 +21°C° 0.1 mm 3 mps 657 mmHg 83%
    09:00 +22°C° 0.4 mm 3 mps 657 mmHg 77%
    10:00 +25°C° 0.4 mm 3 mps 658 mmHg 72%
    11:00 +26°C° 0.4 mm 3 mps 658 mmHg 66%
    12:00 +26°C° 1.4 mm 3 mps 657 mmHg 69%
    13:00 +26°C° 1.4 mm 3 mps 657 mmHg 71%
    14:00 +26°C° 1.4 mm 3 mps 656 mmHg 73%
    15:00 +26°C° 1.4 mm 2 mps 656 mmHg 73%
    16:00 +26°C° 1.4 mm 2 mps 655 mmHg 74%
    17:00 +26°C° 1.4 mm 2 mps 655 mmHg 74%
    18:00 +24°C° 0.7 mm 1 mps 655 mmHg 78%
    19:00 +23°C° 0.7 mm 1 mps 655 mmHg 83%
    20:00 +21°C° 0.7 mm 1 mps 655 mmHg 87%
    21:00 +20°C° 0.7 mm 1 mps 655 mmHg 89%
    22:00 +20°C° 0.7 mm 1 mps 655 mmHg 91%
    23:00 +20°C° 0.7 mm 1 mps 655 mmHg 92%

    Tomorrow, 18 January, Thursday

    Time Temperature Precipitation Wind Pressure Humidity
    00:00 +19°C° 0.9 mm 1 mps 655 mmHg 93%
    01:00 +19°C° 0.9 mm 1 mps 655 mmHg 93%
    02:00 +19°C° 0.9 mm 1 mps 654 mmHg 94%
    03:00 +19°C° 0.1 mm 1 mps 654 mmHg 94%
    04:00 +19°C° 0.1 mm 1 mps 654 mmHg 95%
    05:00 +19°C° 0.1 mm 1 mps 654 mmHg 95%
    06:00 +19°C° 0 mm 2 mps 655 mmHg 91%
    07:00 +20°C° 0 mm 2 mps 656 mmHg 88%
    08:00 +21°C° 0 mm 3 mps 657 mmHg 84%
    09:00 +22°C° 0 mm 3 mps 657 mmHg 75%
    10:00 +25°C° 0 mm 3 mps 657 mmHg 65%
    11:00 +27°C° 0 mm 3 mps 658 mmHg 55%
    12:00 +28°C° 0.4 mm 3 mps 657 mmHg 56%
    13:00 +28°C° 0.4 mm 3 mps 656 mmHg 56%
    14:00 +29°C° 0.4 mm 3 mps 656 mmHg 56%
    15:00 +28°C° 0.6 mm 3 mps 655 mmHg 59%
    16:00 +27°C° 0.6 mm 2 mps 655 mmHg 62%
    17:00 +27°C° 0.6 mm 2 mps 654 mmHg 66%
    18:00 +25°C° 0.2 mm 2 mps 654 mmHg 70%
    19:00 +23°C° 0.2 mm 1 mps 654 mmHg 74%
    20:00 +22°C° 0.2 mm 1 mps 655 mmHg 78%
    21:00 +21°C° 0 mm 1 mps 655 mmHg 79%
    22:00 +21°C° 0 mm 1 mps 655 mmHg 81%
    23:00 +20°C° 0 mm 1 mps 655 mmHg 82%

    Day after tomorrow, 19 January, Friday

    Time Temperature Precipitation Wind Pressure Humidity
    00:00 +20°C° 0 mm 1 mps 655 mmHg 83%
    01:00 +19°C° 0 mm 1 mps 654 mmHg 84%
    02:00 +19°C° 0 mm 1 mps 654 mmHg 85%
    03:00 +19°C° 0 mm 1 mps 654 mmHg 86%
    04:00 +18°C° 0 mm 1 mps 654 mmHg 86%
    05:00 +18°C° 0 mm 1 mps 654 mmHg 87%
    06:00 +20°C° 0 mm 1 mps 655 mmHg 82%
    07:00 +20°C° 0 mm 2 mps 656 mmHg 77%
    08:00 +22°C° 0 mm 3 mps 657 mmHg 72%
    09:00 +25°C° 0.1 mm 3 mps 657 mmHg 66%
    10:00 +26°C° 0.1 mm 3 mps 657 mmHg 60%
    11:00 +28°C° 0.1 mm 3 mps 657 mmHg 54%
    12:00 +29°C° 0.4 mm 2 mps 656 mmHg 52%
    13:00 +29°C° 0.4 mm 2 mps 656 mmHg 50%
    14:00 +30°C° 0.4 mm 1 mps 655 mmHg 48%
    15:00 +29°C° 0 mm 1 mps 655 mmHg 49%
    16:00 +29°C° 0 mm 1 mps 654 mmHg 50%
    17:00 +28°C° 0 mm 1 mps 654 mmHg 51%
    18:00 +26°C° 0 mm 1 mps 654 mmHg 57%
    19:00 +25°C° 0 mm 1 mps 655 mmHg 62%
    20:00 +23°C° 0 mm 1 mps 655 mmHg 67%
    21:00 +22°C° 0.1 mm 1 mps 655 mmHg 70%
    22:00 +22°C° 0.1 mm 1 mps 655 mmHg 73%
    23:00 +21°C° 0.1 mm 1 mps 655 mmHg 76%

    20 January, Saturday

    Time Temperature Precipitation Wind Pressure Humidity
    00:00 +21°C° 0.1 mm 1 mps 655 mmHg 80%
    01:00 +20°C° 0.1 mm 1 mps 654 mmHg 84%
    02:00 +19°C° 0.1 mm 2 mps 654 mmHg 87%
    03:00 +18°C° 0 mm 2 mps 654 mmHg 89%
    04:00 +19°C° 0 mm 1 mps 654 mmHg 91%
    05:00 +18°C° 0 mm 1 mps 654 mmHg 93%
    06:00 +20°C° 0 mm 1 mps 655 mmHg 87%
    07:00 +21°C° 0 mm 1 mps 656 mmHg 82%
    08:00 +23°C° 0 mm 1 mps 657 mmHg 76%
    09:00 +25°C° 0.2 mm 1 mps 657 mmHg 67%
    10:00 +27°C° 0.2 mm 1 mps 658 mmHg 58%
    11:00 +29°C° 0.2 mm 1 mps 658 mmHg 49%
    12:00 +30°C° 0 mm 1 mps 657 mmHg 48%
    13:00 +30°C° 0 mm 1 mps 656 mmHg 47%
    14:00 +30°C° 0 mm 1 mps 655 mmHg 46%
    15:00 +29°C° 0.1 mm 1 mps 655 mmHg 51%
    16:00 +28°C° 0.1 mm 1 mps 655 mmHg 55%
    17:00 +27°C° 0.1 mm 1 mps 654 mmHg 59%
    18:00 +25°C° 0.1 mm 1 mps 654 mmHg 65%
    19:00 +24°C° 0.1 mm 1 mps 655 mmHg 72%
    20:00 +22°C° 0.1 mm 1 mps 655 mmHg 78%
    21:00 +21°C° 0 mm 1 mps 655 mmHg 80%
    22:00 +21°C° 0 mm 1 mps 655 mmHg 82%
    23:00 +20°C° 0 mm 1 mps 655 mmHg 85%

    21 January, Sunday

    Time Temperature Precipitation Wind Pressure Humidity
    00:00 +20°C° 0 mm 1 mps 655 mmHg 87%
    01:00 +19°C° 0 mm 1 mps 654 mmHg 89%
    02:00 +18°C° 0 mm 2 mps 654 mmHg 92%
    03:00 +19°C° 0 mm 1 mps 654 mmHg 93%
    04:00 +18°C° 0 mm 1 mps 654 mmHg 94%
    05:00 +18°C° 0 mm 1 mps 654 mmHg 96%
    06:00 +20°C° 0 mm 1 mps 655 mmHg 89%
    07:00 +21°C° 0 mm 1 mps 656 mmHg 83%
    08:00 +23°C° 0 mm 1 mps 657 mmHg 76%
    09:00 +25°C° 0.1 mm 1 mps 657 mmHg 67%
    10:00 +27°C° 0.1 mm 1 mps 657 mmHg 59%
    11:00 +30°C° 0.1 mm 2 mps 658 mmHg 50%
    12:00 +30°C° 0 mm 1 mps 657 mmHg 48%
    13:00 +30°C° 0 mm 1 mps 656 mmHg 47%
    14:00 +28°C° 0 mm 0 mps 655 mmHg 46%
    15:00 +28°C° 0 mm 0 mps 655 mmHg 47%
    16:00 +28°C° 0 mm 0 mps 655 mmHg 48%
    17:00 +27°C° 0 mm 0 mps 654 mmHg 49%
    18:00 +26°C° 0 mm 0 mps 654 mmHg 52%
    19:00 +24°C° 0 mm 0 mps 654 mmHg 55%
    20:00 +23°C° 0 mm 0 mps 654 mmHg 57%
    21:00 +22°C° 0.1 mm 0 mps 654 mmHg 62%
    22:00 +23°C° 0.1 mm 1 mps 655 mmHg 66%
    23:00 +22°C° 0.1 mm 1 mps 655 mmHg 70%

    22 January, Monday

    Time Temperature Precipitation Wind Pressure Humidity
    00:00 +22°C° 0 mm 1 mps 654 mmHg 73%
    01:00 +21°C° 0 mm 1 mps 654 mmHg 77%
    02:00 +20°C° 0 mm 1 mps 653 mmHg 80%
    03:00 +20°C° 0.1 mm 1 mps 653 mmHg 82%
    04:00 +19°C° 0.1 mm 1 mps 653 mmHg 85%
    05:00 +17°C° 0.1 mm 0 mps 654 mmHg 88%
    06:00 +21°C° 0.1 mm 1 mps 655 mmHg 83%
    07:00 +22°C° 0.1 mm 1 mps 656 mmHg 78%
    08:00 +24°C° 0.1 mm 1 mps 657 mmHg 73%
    09:00 +25°C° 1.2 mm 1 mps 656 mmHg 72%
    10:00 +26°C° 1.2 mm 1 mps 656 mmHg 70%
    11:00 +28°C° 1.2 mm 1 mps 656 mmHg 68%
    12:00 +28°C° 1 mm 1 mps 656 mmHg 63%
    13:00 +29°C° 1 mm 1 mps 656 mmHg 58%
    14:00 +30°C° 1 mm 1 mps 655 mmHg 53%
    15:00 +30°C° 0 mm 1 mps 655 mmHg 54%
    16:00 +29°C° 0 mm 1 mps 654 mmHg 55%
    17:00 +28°C° 0 mm 1 mps 654 mmHg 56%
    18:00 +27°C° 0.1 mm 1 mps 654 mmHg 61%
    19:00 +23°C° 0.1 mm 0 mps 654 mmHg 66%
    20:00 +21°C° 0.1 mm 0 mps 654 mmHg 71%
    21:00 +20°C° 0.5 mm 0 mps 654 mmHg 75%
    22:00 +22°C° 0.5 mm 1 mps 654 mmHg 79%
    23:00 +21°C° 0.5 mm 1 mps 654 mmHg 83%
    Show more